PARUS-T2

operational
NORAD ID: 64590 Int'l Des: NNA 2025-135 Owner: TASA Country: J
LEOCIRCULARRETROGRADESSO

About PARUS-T2

Description loading...

Live Position

Loading 3D Globe...

Upcoming Passes

Altitude History

Altitude vs Time

uPlot chart will show altitude changes over time

Two-Line Element Set

1 64590U 25135BQ 25315.25804492 .00004637 00000-0 45221-3 0 9997
2 64590 97.7564 67.4455 0005003 352.1035 8.0105 14.92925782 21378
Epoch: Nov 11, 2025 • Age: 8 hours

Current Status

Altitude 603.0 km
Velocity 7.56 km/s
Sub-Earth Point 81.92°N, 49.58°E
Launch Date Jun 23, 2025
Age 0.3 years
Type other

Technical Details

Classification Payload
Mass 4.00 kg
Dry Mass 4.00 kg
Total Mass 4.00 kg
Length 0.30 m
Diameter 0.10 m
Span 0.30 m
Shape Box
Manufacturer PYRAS
Bus Type Cubesat 3U
Phase Status In Orbit
Owner/State TASA/J

Large Constellations

Loading constellations...